Theta_e
325 329 328 326 325 324 323 322 322 322 322 321 321 320 320 320 320 319 319 319 319 318 318 317 317 317 316 315 316 319 321 326 332 334 336 335 335 337 338 336 337 335 334
326 327 324 324 325 323 322 321 321 320 320 320 319 319 318 318 318 318 318 318 317 317 317 316 316 316 314 313 316 318 319 324 329 331 333 333 333 335 335 336 336 336 335
327 327 324 324 324 322 321 320 320 319 319 319 318 317 317 317 317 317 317 317 316 316 316 316 315 312 311 312 315 315 317 322 327 328 329 329 330 332 332 333 336 336 335
328 326 323 323 323 322 321 319 319 318 318 317 317 316 316 316 316 315 315 315 314 315 316 314 311 309 308 311 313 314 317 323 324 327 327 326 326 329 330 331 333 335 336
327 324 323 322 322 321 320 319 318 317 316 316 316 315 315 314 314 313 314 314 314 315 314 311 309 307 306 309 310 312 318 320 323 324 323 323 323 325 327 329 331 332 333
325 323 322 322 322 321 320 318 316 316 315 315 316 314 313 313 312 312 311 312 314 315 312 310 307 306 306 308 306 307 313 321 322 321 322 322 323 323 321 323 328 330 331
323 323 322 321 320 320 320 316 315 315 315 315 314 315 312 311 310 310 310 311 313 312 310 308 306 306 306 306 306 306 306 318 319 319 320 320 320 320 319 318 319 323 327
323 322 321 320 320 319 318 316 313 314 313 312 312 312 313 309 311 309 308 306 309 309 308 301 300 304 305 306 307 305 305 313 315 317 317 317 318 317 315 313 316 317 320
322 321 320 320 319 318 316 315 312 313 312 312 310 311 309 308 310 309 306 303 306 306 306 301 297 301 304 305 307 304 303 312 311 313 314 314 314 313 312 312 312 314 315
321 320 320 319 317 316 315 314 312 313 313 310 308 307 308 308 309 307 303 302 302 301 302 300 301 301 301 301 305 302 302 306 311 314 314 314 313 314 314 310 310 311 312
320 319 318 318 316 315 314 313 312 312 312 308 308 308 306 305 306 307 303 302 302 302 302 302 302 301 301 301 301 302 301 302 306 313 313 313 312 311 311 312 308 309 310
319 319 318 317 316 314 314 312 310 311 307 307 306 306 305 305 305 304 304 303 303 303 303 303 302 302 301 301 301 300 301 301 301 304 306 306 306 306 307 309 310 308 309
319 318 318 316 315 314 313 309 305 304 305 306 307 307 307 306 305 305 305 304 303 303 303 302 302 302 302 302 301 301 300 300 300 302 303 301 300 302 303 305 311 311 309
318 318 317 317 315 314 311 307 303 304 304 308 310 309 309 307 307 306 306 305 305 304 303 303 302 302 302 302 301 301 300 300 300 300 300 300 300 300 302 302 306 311 310
318 317 317 316 315 313 312 311 308 308 311 311 310 310 310 309 308 308 307 306 306 305 305 304 303 302 302 302 302 301 301 300 300 300 300 300 300 299 300 302 302 307 310
318 318 317 316 315 313 312 312 311 311 312 311 312 312 311 310 309 308 307 307 307 307 306 305 304 303 302 302 302 301 301 300 300 300 300 300 299 299 299 300 302 303 308
318 318 317 316 315 313 313 312 313 312 312 312 313 312 312 311 310 309 308 308 308 308 307 305 305 304 302 302 302 302 301 300 300 300 300 299 299 299 299 298 301 302 303
318 317 316 316 314 313 313 312 312 311 311 310 311 311 311 311 311 310 309 308 308 308 306 306 305 305 304 302 302 302 302 301 301 300 300 299 299 299 299 298 298 300 302
314 314 313 312 312 312 312 312 312 312 311 311 310 310 310 309 310 311 310 309 308 308 307 306 305 305 304 303 303 302 302 301 301 300 300 299 299 299 299 298 298 298 299
312 312 312 312 312 312 313 313 312 311 311 311 311 310 311 311 311 311 311 311 309 308 307 306 306 305 303 302 302 302 301 301 301 300 300 299 299 299 298 298 298 297 297
312 312 312 312 311 312 312 312 312 312 312 311 311 311 311 311 311 310 308 308 308 307 307 306 306 305 303 302 301 301 302 301 301 300 300 300 300 299 298 298 298 298 297
313 312 312 312 312 312 312 312 312 312 313 312 312 312 311 310 308 308 308 307 308 307 307 307 306 304 304 301 300 299 296 299 300 300 300 300 299 299 298 298 298 298 298
312 312 312 313 312 311 312 311 310 310 308 308 307 310 310 308 307 306 305 304 304 305 305 305 306 304 302 301 300 300 291 296 295 299 299 298 298 299 299 298 298 298 298
313 312 312 312 312 311 306 304 303 302 302 302 301 301 300 300 301 302 301 300 300 300 300 300 303 304 302 300 299 300 300 299 293 295 299 298 298 299 299 298 298 298 298
311 311 309 310 309 305 304 303 302 301 300 300 299 299 299 299 299 299 299 299 299 299 299 299 301 301 301 301 300 299 299 298 298 295 294 297 298 298 298 298 298 298 298
307 306 305 305 303 302 301 300 299 298 298 297 296 296 296 296 296 297 297 297 297 297 297 297 297 299 300 299 300 300 299 298 296 296 292 294 296 298 298 298 299 299 300
Wind_Speed
21 23 21 19 17 16 16 16 17 17 17 17 17 17 18 17 17 16 15 14 14 13 13 14 14 14 14 14 14 12 10 9 12 13 10 10 12 14 15 15 13 13 11
31 24 20 18 17 16 15 15 16 16 17 17 16 16 16 16 16 15 14 13 13 13 13 13 14 14 14 14 13 13 10 9 12 12 14 12 9 12 12 14 14 12 12
30 25 19 18 17 15 14 14 14 15 16 15 15 15 15 16 15 15 14 13 12 13 13 13 13 14 15 14 13 13 12 7 10 11 12 11 7 10 10 9 14 14 11
33 26 20 19 17 15 13 13 13 14 14 14 14 14 15 15 14 14 14 13 12 13 12 12 13 14 15 14 14 14 10 8 9 11 8 9 11 11 8 8 9 13 14
32 27 21 20 18 15 13 12 12 12 13 13 12 13 13 13 13 14 13 12 12 12 11 12 13 14 15 15 14 14 14 12 14 11 11 12 14 15 10 8 5 8 9
29 25 21 20 17 15 14 12 11 11 12 11 11 12 11 12 12 12 12 11 12 10 10 10 12 14 15 15 13 14 14 15 15 13 11 12 15 14 12 9 4 3 4
29 23 22 18 16 14 14 11 11 10 11 10 10 9 10 10 11 12 11 11 10 9 9 10 11 13 15 15 12 11 13 13 13 13 12 12 12 13 11 8 8 9 9
25 23 20 16 14 14 12 11 10 10 9 9 9 8 8 9 10 10 9 9 8 7 7 9 11 12 13 15 14 11 11 11 10 10 10 12 12 12 10 8 7 9 9
23 22 19 17 14 13 11 9 9 9 9 9 8 8 7 8 9 9 8 8 7 6 7 9 10 12 12 12 14 12 12 11 9 8 7 7 9 10 10 9 8 8 6
21 19 18 15 13 12 11 8 8 8 8 8 7 8 7 7 7 6 8 9 8 8 9 11 12 11 11 10 12 11 11 11 10 10 8 7 7 8 10 9 8 8 8
22 19 18 17 16 12 9 8 9 8 9 8 8 7 7 7 7 5 6 8 9 9 9 9 10 9 10 11 11 8 7 7 7 9 9 5 5 5 6 8 8 8 8
27 24 23 21 20 17 12 12 11 12 11 11 10 9 6 4 4 3 3 4 5 6 5 6 6 6 6 7 9 5 5 4 3 4 4 2 4 5 5 6 5 6 7
30 28 26 24 22 18 15 14 13 14 14 12 11 9 6 4 4 4 2 1 1 1 2 2 3 4 3 5 7 7 5 3 2 2 2 1 1 5 6 5 3 4 5
34 28 24 22 19 15 12 13 13 15 15 14 11 10 8 7 6 6 4 4 4 3 3 2 3 1 3 3 4 4 4 4 2 2 2 2 2 5 7 7 4 3 4
24 23 24 21 18 14 13 11 13 14 13 12 12 12 11 10 10 9 9 8 7 7 6 6 6 5 4 4 5 5 4 4 6 6 7 6 4 5 7 7 5 6 4
19 18 22 20 18 15 14 12 13 13 13 14 14 15 17 16 16 14 13 12 11 9 10 10 8 8 7 7 5 6 8 7 8 7 7 8 7 8 10 7 6 6 7
21 21 21 21 18 16 13 10 15 14 16 16 18 18 22 21 21 21 18 17 15 14 13 12 10 9 10 10 10 10 8 7 8 9 9 8 8 8 8 9 7 6 7
19 19 18 18 16 12 12 9 9 11 13 14 16 16 17 22 25 26 25 23 21 21 18 15 13 12 14 15 15 12 11 11 12 11 12 12 11 11 9 9 9 8 6
10 12 14 12 12 10 12 13 13 14 15 16 16 16 17 20 21 29 29 27 28 27 23 19 17 15 15 16 16 15 14 12 12 12 13 13 13 13 12 9 8 10 9
14 8 4 2 4 12 14 16 17 20 22 22 24 23 22 22 23 25 27 30 31 26 25 22 19 19 17 15 14 16 17 16 14 11 9 10 14 13 13 13 12 10 12
11 5 9 15 14 13 18 24 24 25 26 26 25 25 26 24 20 17 12 11 10 17 25 22 20 26 20 17 12 15 17 18 17 16 16 16 17 16 16 15 14 14 12
15 16 18 18 19 25 25 26 21 25 25 25 25 26 24 22 22 21 23 25 26 28 30 32 34 29 25 21 9 4 1 7 15 18 20 22 23 20 20 17 15 15 15
17 22 25 27 25 21 20 22 22 23 23 24 26 26 26 24 23 21 20 21 23 25 28 32 34 34 31 25 22 9 2 4 1 9 11 12 18 20 19 21 17 17 16
19 20 21 20 21 20 18 18 19 21 23 26 26 25 25 24 23 21 22 22 23 23 25 25 27 35 35 27 20 24 22 9 3 2 5 3 9 11 17 17 15 15 14
17 15 14 17 18 19 19 21 22 23 25 25 24 23 23 23 23 23 23 22 21 21 23 24 26 31 36 31 27 17 24 15 13 4 3 5 9 4 6 12 15 17 16
10 14 16 16 18 20 20 21 21 21 19 18 17 17 18 18 19 21 21 23 23 23 25 28 27 27 31 34 30 31 22 10 9 5 2 4 6 7 6 8 13 15 14
Wind_Direction
167 154 146 145 143 137 135 128 122 118 115 111 109 109 106 104 100 96 91 86 79 73 67 62 60 54 47 39 37 43 51 109 107 90 91 90 76 74 68 69 76 84 79
158 154 151 149 140 138 132 127 123 121 115 112 111 108 106 103 101 98 94 90 83 76 72 65 58 49 44 41 46 44 40 103 123 111 91 87 86 71 67 67 63 76 82
151 152 158 147 143 138 133 127 125 120 116 115 112 109 107 105 103 101 96 92 87 79 75 66 56 47 42 45 47 42 39 109 139 119 101 94 120 73 78 82 65 65 77
152 154 156 152 146 138 133 131 126 120 119 118 114 110 108 107 106 103 100 95 90 85 78 66 55 46 41 44 49 45 71 127 137 124 118 96 89 79 98 83 71 63 68
152 151 155 150 144 142 138 130 126 122 119 119 117 112 108 107 105 102 98 94 91 91 80 67 55 44 40 44 49 72 82 108 123 109 104 92 81 66 74 89 77 66 64
148 146 154 150 143 139 135 130 128 125 123 119 121 115 113 109 104 100 97 93 96 94 81 66 54 47 47 51 64 76 82 109 116 110 101 85 71 63 52 57 98 96 80
145 147 150 146 141 141 134 136 132 130 128 123 121 125 113 110 105 102 94 92 97 84 79 65 53 49 47 52 67 75 77 111 111 105 101 87 72 56 42 27 44 49 67
146 148 144 142 146 143 136 141 134 133 135 133 128 126 121 111 106 103 93 87 94 86 71 63 59 57 52 55 61 75 80 107 109 102 91 79 68 58 46 31 34 39 42
148 146 144 145 146 146 154 152 141 143 142 138 130 127 126 122 116 101 87 83 84 80 66 55 70 68 58 64 60 71 83 108 101 102 91 74 58 47 38 34 29 29 30
150 146 144 146 161 163 168 155 148 153 161 143 141 138 129 126 124 98 80 77 68 80 73 72 75 74 65 65 65 75 78 99 98 115 98 77 57 43 30 22 17 19 19
152 165 171 169 170 182 188 169 165 164 161 159 151 148 151 140 136 130 82 73 64 79 72 67 68 69 70 66 56 59 69 77 110 122 119 80 54 32 15 6 359 10 16
170 174 178 181 181 185 191 184 187 177 177 169 168 173 164 158 157 130 102 71 65 72 74 54 47 53 62 49 30 21 36 32 60 142 128 103 36 20 1 349 351 352 4
177 180 185 189 187 189 189 189 188 179 170 169 174 184 190 194 200 206 192 185 245 28 55 49 25 12 24 23 32 30 18 344 50 143 153 119 3 356 352 331 329 345 348
185 182 185 188 189 189 185 184 182 180 187 190 190 195 206 215 218 217 225 227 245 268 280 267 267 321 314 317 352 17 25 23 311 273 267 267 293 324 345 337 292 305 323
187 187 189 190 191 187 196 197 194 196 199 204 213 219 225 226 229 232 234 235 229 244 265 265 259 262 257 257 295 313 305 305 328 301 285 275 274 309 319 334 304 273 297
186 195 194 200 197 196 209 217 222 220 226 230 232 235 235 234 232 238 232 232 234 254 257 255 262 266 252 250 254 289 290 267 278 291 296 286 285 297 300 299 319 275 259
190 194 204 205 207 214 225 242 236 243 240 238 243 245 244 241 237 237 241 242 251 252 242 239 247 256 245 248 260 287 287 277 271 271 283 286 285 289 303 288 292 300 266
194 195 198 204 205 212 200 222 223 228 237 243 244 247 243 242 245 243 242 243 255 246 239 239 239 245 250 257 268 272 274 273 276 268 260 270 271 276 285 294 277 277 287
194 186 176 190 209 227 246 248 250 253 252 254 251 252 253 252 253 247 245 250 254 246 236 234 237 239 245 255 263 265 256 260 263 272 265 266 265 263 269 282 283 277 277
55 119 125 213 259 259 270 272 272 270 265 265 266 263 262 264 255 262 266 262 263 258 241 232 229 236 240 251 257 258 255 253 259 260 258 267 263 259 264 263 270 277 271
72 89 205 232 250 276 297 283 276 279 280 277 272 271 269 269 259 242 226 232 277 262 244 244 243 248 233 243 246 257 259 254 246 248 260 266 272 265 258 259 262 267 273
236 226 233 239 248 266 273 277 283 281 281 279 276 276 268 252 253 251 249 242 255 245 247 236 250 248 236 233 212 210 298 264 253 252 260 266 265 256 250 251 253 259 262
237 233 244 258 270 275 276 278 280 277 276 274 275 272 260 264 262 254 244 249 249 245 240 244 249 241 223 221 222 197 72 219 298 248 249 268 263 250 249 245 254 255 253
258 263 270 275 272 273 275 272 270 269 269 278 280 277 271 267 261 251 251 251 246 244 244 246 247 239 223 218 215 222 229 221 175 300 231 325 347 253 245 233 245 247 250
275 276 278 275 274 280 282 283 284 281 283 285 283 280 277 272 266 260 256 250 243 245 245 242 240 236 230 222 218 207 220 219 224 171 225 279 298 293 244 244 250 244 246
284 294 299 292 292 295 296 294 293 294 298 304 309 311 306 295 281 269 261 256 255 256 250 247 242 237 234 230 232 222 215 199 193 179 145 221 227 274 263 255 245 230 248